#timestamp,LO_Frequency,Hit,StdDev 
1679727615.5,286047014.4,N
1679727635.3,286047021.1,N
1679727655.1,286047016.3,N
1679727675.9,286047015.2,N
1679727695.7,286047016.6,N
1679727715.5,286047020.3,N
1679727735.4,286047014.3,N
1679727755.2,286047014.4,N
1679727775.1,286047023.3,N
1679727776.0,286047023.3,N
1679727795.8,286047025.0,Y
1679727815.6,286047013.7,P
1679727835.5,286047006.1,N
1679727855.3,286047009.8,P
1679727875.1,286047007.5,N
1679727895.9,286047007.5,N
1679727915.7,286047005.4,N
1679727935.6,286047007.2,N
1679727955.4,286047006.8,N
1679727975.2,286047006.6,N
1679727995.1,286047006.0,N
1679727996.0,286047006.0,N
1679728015.8,286047003.2,N
1679728035.6,286047007.2,N
1679728055.5,286047018.1,Y
1679728075.3,286047012.0,P
1679728095.2,286047006.8,N
1679728115.9,286047004.5,N
1679728135.7,286047007.0,N
1679728155.6,286047002.6,N
1679728175.4,286047002.2,N
1679728195.2,286047002.0,N
1679728215.1,286047000.3,N
1679728216.0,286047000.3,N
1679728235.8,286047002.9,N
1679728255.7,286047001.2,N
1679728275.5,286047000.3,N
1679728295.3,286047004.1,N
1679728315.2,286047005.7,N
1679728335.9,286047005.6,N
1679728355.7,286047006.6,N
1679728375.6,286047006.1,N
1679728395.4,286047007.8,N
1679728415.3,286047009.9,Y
1679728435.1,286046997.8,P
1679728436.0,286046997.8,N
1679728455.8,286046999.1,N
1679728475.7,286046997.3,N
1679728495.5,286046995.5,N
1679728515.3,286046998.9,N
1679728535.2,286046999.2,N
1679728555.0,286047001.0,N
1679728555.9,286047001.0,N
1679728575.8,286047010.3,Y
1679728595.6,286047007.5,P
1679728615.4,286047002.2,N
1679728635.3,286047000.1,N
1679728655.1,286046998.9,N
1679728675.9,286047004.4,N
1679728695.7,286047007.6,N
1679728715.5,286047002.0,N
1679728735.4,286046993.3,N
1679728755.2,286047002.6,N
1679728775.0,286047003.0,N
1679728775.9,286047003.0,N
1679728795.8,286047004.1,N
1679728815.6,286047003.8,N
1679728835.4,286047002.2,N
1679728855.3,286046993.4,N
1679728875.1,286046988.8,N
1679728895.9,286046986.8,N
1679728915.7,286046981.1,Y
1679728935.5,286046975.8,P
1679728955.4,286046976.2,N
1679728975.2,286046979.9,N
1679728995.1,286046980.6,N
1679728996.0,286046980.6,N
1679729015.8,286046992.6,N
1679729035.6,286046997.8,N
1679729055.5,286046997.9,N
1679729075.3,286046995.1,N
1679729095.1,286046997.6,N
1679729115.9,286046996.2,N
1679729135.7,286046994.9,N
1679729155.6,286046996.0,N
1679729175.4,286046994.6,N
1679729195.2,286046992.8,N
1679729215.1,286046989.5,N
1679729235.8,286046992.4,N
1679729255.7,286046993.4,N
1679729275.5,286047006.8,N
1679729295.4,286047007.5,N
1679729315.2,286046999.7,N
1679729335.1,286047004.4,N
1679729336.0,286047004.4,N
1679729355.8,286047003.8,N
1679729375.7,286047014.4,N
1679729395.5,286047019.1,N
1679729415.3,286047020.2,N
1679729435.2,286047025.4,N
1679729455.0,286047020.9,N
1679729455.9,286047020.9,N
1679729475.7,286047020.3,N
1679729495.6,286047012.4,N
1679729515.4,286047003.2,N
1679729535.3,286047012.1,N
1679729555.1,286047008.0,N
1679729556.0,286047008.0,N
1679729575.8,286047009.1,N
1679729595.7,286047004.7,N
1679729615.5,286047006.0,N
1679729635.3,286046998.8,N
1679729655.2,286046995.3,N
1679729675.0,286046994.7,N
1679729675.9,286046994.7,N
1679729695.8,286046993.5,N
1679729715.6,286046993.2,N
1679729735.4,286046990.1,N
1679729755.3,286046999.6,N
1679729775.1,286047009.6,N
1679729795.8,286047012.2,N
1679729815.7,286047005.2,N
1679729835.5,286046998.5,N
1679729855.4,286046992.8,N
1679729875.2,286046990.0,N
1679729895.0,286046988.3,N
1679729895.9,286046988.3,N
1679729915.8,286046990.3,N
1679729935.6,286046996.7,N
1679729955.4,286047007.3,N
1679729975.3,286047010.8,N
1679729995.1,286047003.6,N
1679730015.9,286047002.6,N
1679730035.7,286046999.9,N
1679730055.5,286046995.8,N
1679730075.4,286046998.5,N
1679730095.2,286046999.9,N
1679730115.0,286046996.9,N
1679730115.9,286046996.9,N
1679730135.8,286047000.9,N
1679730155.6,286047003.1,N
1679730175.5,286047017.2,N
1679730195.3,286047017.1,N
1679730215.1,286047014.6,N
1679730235.9,286047011.3,N
1679730255.7,286047003.0,N
1679730275.5,286047003.7,N
1679730295.4,286047006.0,N
1679730315.2,286047007.9,N
1679730335.1,286047006.7,N
1679730336.0,286047006.7,N
1679730355.8,286046998.2,N
1679730375.6,286046993.4,N
1679730395.5,286046994.3,N
1679730415.3,286046995.8,N
1679730435.1,286047002.6,N
1679730455.9,286047001.9,N
1679730475.7,286046997.2,N
1679730495.6,286046991.8,N
1679730515.4,286046996.8,N
1679730535.2,286046997.7,N
1679730555.1,286046996.7,N
1679730556.0,286046996.7,N
1679730575.8,286046990.7,N
1679730595.6,286046989.4,N
1679730615.5,286046987.8,N
1679730635.3,286046987.3,N
1679730655.2,286046986.0,N
1679730675.9,286046984.0,N
1679730695.7,286046991.3,N
1679730715.6,286046996.0,N
1679730735.4,286046993.0,N
1679730755.2,286046991.8,N
1679730775.1,286046993.8,N
1679730776.0,286046993.8,N
1679730795.8,286046994.0,N
1679730815.7,286046995.9,N
1679730835.5,286046999.4,N
1679730855.3,286047007.3,N
1679730875.2,286047009.3,N
1679730895.0,286047010.6,N
1679730895.9,286047010.6,N
1679730915.7,286047014.3,N
1679730935.6,286047008.6,N
1679730955.4,286047005.9,N
1679730975.3,286047001.7,N
1679730995.1,286047007.2,N
1679730996.0,286047007.2,N
1679731015.8,286047002.3,N
1679731035.7,286047000.6,N
1679731055.5,286046995.5,N
1679731075.3,286046996.1,N
1679731095.2,286046992.7,N
1679731115.0,286046991.4,N
1679731115.9,286046991.4,N
1679731135.8,286046991.8,N
1679731155.6,286046990.9,N
1679731175.4,286046989.2,N
1679731195.3,286046988.7,N
